Waukegan, IL

9:04 AM CDT on August 19, 2017 (GMT -0500)
Waukegan Regional

Weather History for KUGN - April, 2014

Change the Weather History Date:

Tuesday, April 8, 2014

  Actual Average Record
Temperature  
Mean Temperature 45 °F -  
Max Temperature 54 °F 52 °F 73 °F (2001)
Min Temperature 35 °F 34 °F 25 °F (2003)
Degree Days  
Heating Degree Days 20 22  
Month to date heating degree days 209 186  
Since 1 July heating degree days 7217 6056  
Cooling Degree Days 0 0  
Month to date cooling degree days 0 0  
Year to date cooling degree days 0 0  
Moisture  
Dew Point 38 °F    
Average Humidity 73    
Maximum Humidity 92    
Minimum Humidity 53    
Precipitation  
Precipitation 0.03 in 0.11 in 1.06 in (2002)
Month to date precipitation 0.22 0.76  
Year to date precipitation 3.00 6.13  
Sea Level Pressure  
Sea Level Pressure 29.75 in    
Wind  
Wind Speed 5 mph (NNW)    
Max Wind Speed 13 mph    
Max Gust Speed 16 mph    
Visibility 6 miles    
Events Rain    
T = Trace of Precipitation, MM = Missing Value Source: NWS Daily Summary

Daily Weather History Graph

Daily Weather History Graph

Search for Another Location

Airport or City:

Trip Planner

Search our weather history database for the weather conditions in past years. The results will help you decide how hot, cold, wet, or windy it might be!

Date:

Astronomy

Apr. 08, 2014 Rise Set
Actual Time 6:21 AM CDT 7:25 PM CDT
Civil Twilight 5:53 AM CDT 7:54 PM CDT
Nautical Twilight 5:18 AM CDT 8:28 PM CDT
Astronomical Twilight 4:43 AM CDT 9:04 PM CDT
Moon 1:11 PM CDT (4/8) 2:41 AM CDT (4/8)
Length of Visible Light 14h 00m
Length of Day
13h 03m
Waxing Gibbous, 63% of the Moon is Illuminated
Apr 8
Waxing Gibbous
Apr 15
Full
Apr 22
Last Quarter
Apr 29
New
May 6
First Quarter

Hourly Weather History & Observations

Time (CDT) Temp. Windchill Dew Point Humidity Pressure Visibility Wind Dir Wind Speed Gust Speed Precip Events Conditions
12:52 AM 43.0 °F 41.3 °F 26.1 °F 51% 29.64 in 9.0 mi West 3.5 mph - N/A   Overcast
1:52 AM 44.1 °F 41.5 °F 28.9 °F 55% 29.63 in 9.0 mi West 4.6 mph - N/A   Overcast
2:52 AM 45.0 °F 42.6 °F 37.0 °F 74% 29.63 in 9.0 mi WNW 4.6 mph - 0.00 in Rain Light Rain
3:52 AM 46.0 °F 42.5 °F 43.0 °F 89% 29.64 in 5.0 mi NW 6.9 mph - 0.00 in Rain Light Rain
4:52 AM 45.0 °F 41.8 °F 43.0 °F 93% 29.65 in 4.0 mi WNW 5.8 mph - 0.01 in   Overcast
5:52 AM 45.0 °F 43.5 °F 42.1 °F 90% 29.67 in 5.0 mi WNW 3.5 mph - N/A   Overcast
6:12 AM 45.0 °F 43.5 °F 43.0 °F 93% 29.67 in 4.0 mi WNW 3.5 mph - 0.01 in Rain Light Rain
6:38 AM 45.0 °F 43.5 °F 43.0 °F 93% 29.68 in 4.0 mi NW 3.5 mph - 0.01 in   Overcast
6:52 AM 45.0 °F 42.6 °F 43.0 °F 93% 29.70 in 3.0 mi WNW 4.6 mph - 0.01 in   Overcast
7:00 AM 45.0 °F 41.8 °F 43.0 °F 93% 29.68 in 3.0 mi NW 5.8 mph - N/A   Overcast
7:11 AM 45.0 °F 41.8 °F 42.1 °F 90% 29.69 in 3.0 mi NW 5.8 mph - N/A   Overcast
7:43 AM 45.0 °F 40.6 °F 42.1 °F 90% 29.70 in 4.0 mi NNW 8.1 mph - N/A   Overcast
7:52 AM 45.0 °F 41.8 °F 42.1 °F 90% 29.72 in 4.0 mi NW 5.8 mph - N/A   Overcast
8:02 AM 45.0 °F 40.6 °F 41.0 °F 86% 29.71 in 4.0 mi NW 8.1 mph - N/A   Overcast
8:15 AM 45.0 °F 39.7 °F 41.0 °F 86% 29.71 in 5.0 mi NW 10.4 mph - N/A   Overcast
8:36 AM 45.0 °F 40.6 °F 41.0 °F 86% 29.72 in 5.0 mi NW 8.1 mph - N/A   Overcast
8:52 AM 45.0 °F 41.8 °F 41.0 °F 86% 29.73 in 5.0 mi NW 5.8 mph - N/A   Overcast
9:52 AM 48.0 °F - 41.0 °F 77% 29.75 in 6.0 mi NW 9.2 mph - N/A   Haze
10:52 AM 50.0 °F - 39.9 °F 68% 29.77 in 8.0 mi NNW 9.2 mph - N/A   Partly Cloudy
11:52 AM 52.0 °F - 37.9 °F 59% 29.78 in 9.0 mi Variable 4.6 mph - N/A   Mostly Cloudy
12:52 PM 51.1 °F - 37.0 °F 59% 29.78 in 8.0 mi ENE 9.2 mph - N/A   Overcast
1:52 PM 52.0 °F - 36.0 °F 54% 29.78 in 8.0 mi ENE 8.1 mph - N/A   Scattered Clouds
2:52 PM 48.9 °F - 34.0 °F 56% 29.78 in 8.0 mi East 6.9 mph - N/A   Mostly Cloudy
3:52 PM 48.9 °F - 33.1 °F 54% 29.80 in 9.0 mi NE 6.9 mph - 0.00 in Rain Light Rain
4:52 PM 53.1 °F - 35.1 °F 50% 29.81 in 9.0 mi ENE 8.1 mph - 0.00 in   Partly Cloudy
5:52 PM 48.0 °F - 36.0 °F 63% 29.85 in 6.0 mi Calm Calm - 0.01 in Rain Light Rain
6:52 PM 48.0 °F - 37.0 °F 66% 29.86 in 9.0 mi NNE 6.9 mph - 0.00 in   Scattered Clouds
7:52 PM 42.1 °F - 35.1 °F 76% 29.88 in 9.0 mi Calm Calm - 0.00 in   Clear
8:52 PM 39.9 °F - 35.1 °F 83% 29.91 in 8.0 mi Calm Calm - N/A   Scattered Clouds
9:52 PM 41.0 °F - 35.1 °F 79% 29.91 in 8.0 mi Calm Calm - N/A   Scattered Clouds
10:52 PM 41.0 °F 36.4 °F 35.1 °F 79% 29.93 in 8.0 mi NNE 6.9 mph - N/A   Clear
11:52 PM 37.9 °F - 32.0 °F 79% 29.95 in 10.0 mi Calm Calm - N/A   Partly Cloudy